"read_dt","SO2 (ppb)","flags","PMT voltage (V)","lamp voltage (V)","lamp intensity (Hz)","internal temp (C)","react chamber temp (C)","sample flow (l/min)","pres (mmHg)","SO2 bkg (ppb)","SO2 coefficient"
2014-07-25 00:00:00,1825E-3,5C000000,-0724,0830,12183,026.6,045.4,0.481,736.1,01.18,0.508
2014-07-25 00:01:00,1894E-3,5C000000,-0724,0830,12097,026.6,045.4,0.482,736.1,01.18,0.508
2014-07-25 00:02:00,1773E-3,5C000000,-0724,0830,12101,026.6,045.5,0.482,736.0,01.18,0.508
2014-07-25 00:03:00,1703E-3,5C000000,-0724,0831,12056,026.6,045.4,0.481,736.1,01.18,0.508
2014-07-25 00:04:00,1734E-3,5C000000,-0724,0829,12167,026.6,045.4,0.482,736.0,01.18,0.508
2014-07-25 00:05:00,1754E-3,5C000000,-0724,0831,12224,026.6,045.4,0.481,736.1,01.18,0.508
2014-07-25 00:06:00,1865E-3,5C000000,-0724,0831,12159,026.6,045.5,0.482,736.1,01.18,0.508
2014-07-25 00:07:00,1733E-3,5C000000,-0724,0831,12145,026.5,045.4,0.482,736.1,01.18,0.508
2014-07-25 00:08:00,1850E-3,5C000000,-0724,0831,12273,026.6,045.5,0.481,736.1,01.18,0.508
2014-07-25 00:09:00,1713E-3,5C000000,-0724,0830,12236,026.6,045.5,0.482,736.1,01.18,0.508
2014-07-25 00:10:00,1877E-3,5C000000,-0724,0830,12020,026.6,045.5,0.482,736.1,01.18,0.508
2014-07-25 00:11:00,1919E-3,5C000000,-0724,0830,12235,026.6,045.4,0.481,736.1,01.18,0.508
2014-07-25 00:12:00,1942E-3,5C000000,-0724,0830,12288,026.5,045.4,0.482,736.2,01.18,0.508
2014-07-25 00:13:00,1951E-3,5C000000,-0724,0831,12345,026.6,045.4,0.482,736.2,01.18,0.508
2014-07-25 00:14:00,1766E-3,5C000000,-0724,0830,12249,026.5,045.4,0.482,736.2,01.18,0.508
2014-07-25 00:15:00,1849E-3,5C000000,-0724,0830,12247,026.5,045.4,0.482,736.2,01.18,0.508
2014-07-25 00:16:00,1910E-3,5C000000,-0724,0831,12313,026.6,045.5,0.481,736.2,01.18,0.508
2014-07-25 00:17:00,1796E-3,5C000000,-0724,0830,11914,026.6,045.4,0.482,736.2,01.18,0.508
2014-07-25 00:18:00,1878E-3,5C000000,-0724,0831,12069,026.5,045.4,0.482,736.2,01.18,0.508
2014-07-25 00:19:00,1900E-3,5C000000,-0724,0831,12094,026.5,045.4,0.481,736.2,01.18,0.508
2014-07-25 00:20:00,1805E-3,5C000000,-0724,0830,11857,026.5,045.4,0.482,736.2,01.18,0.508
2014-07-25 00:21:00,1809E-3,5C000000,-0724,0830,12053,026.5,045.5,0.482,736.2,01.18,0.508
2014-07-25 00:22:00,1684E-3,5C000000,-0724,0830,12144,026.5,045.4,0.482,736.2,01.18,0.508
2014-07-25 00:23:00,1754E-3,5C000000,-0724,0831,12193,026.5,045.4,0.482,736.2,01.18,0.508
2014-07-25 00:24:00,1861E-3,5C000000,-0724,0831,12265,026.5,045.5,0.481,736.2,01.18,0.508
2014-07-25 00:25:00,1833E-3,5C000000,-0724,0829,12299,026.6,045.5,0.482,736.2,01.18,0.508
2014-07-25 00:26:00,1685E-3,5C000000,-0724,0830,12327,026.5,045.4,0.482,736.2,01.18,0.508
2014-07-25 00:27:00,1829E-3,5C000000,-0724,0831,12140,026.6,045.4,0.481,736.2,01.18,0.508
2014-07-25 00:28:00,1773E-3,5C000000,-0724,0830,12166,026.6,045.5,0.482,736.1,01.18,0.508
2014-07-25 00:29:00,1807E-3,5C000000,-0724,0830,12339,026.5,045.5,0.482,736.1,01.18,0.508
2014-07-25 00:30:00,1760E-3,5C000000,-0724,0831,12311,026.5,045.4,0.481,736.1,01.18,0.508
2014-07-25 00:31:00,1835E-3,5C000000,-0724,0830,12023,026.5,045.5,0.482,736.1,01.18,0.508
2014-07-25 00:32:00,1853E-3,5C000000,-0724,0831,12247,026.5,045.5,0.481,736.1,01.18,0.508
2014-07-25 00:33:00,1758E-3,5C000000,-0724,0831,12215,026.5,045.5,0.482,736.2,01.18,0.508
2014-07-25 00:34:00,1806E-3,5C000000,-0724,0831,12302,026.5,045.4,0.482,736.2,01.18,0.508
2014-07-25 00:35:00,1857E-3,5C000000,-0724,0831,12294,026.5,045.4,0.481,736.2,01.18,0.508
2014-07-25 00:36:00,1866E-3,5C000000,-0724,0830,12306,026.5,045.4,0.482,736.2,01.18,0.508
2014-07-25 00:37:00,1852E-3,5C000000,-0724,0830,12149,026.5,045.5,0.482,736.2,01.18,0.508
2014-07-25 00:38:00,1783E-3,5C000000,-0724,0831,12235,026.6,045.4,0.481,736.2,01.18,0.508
2014-07-25 00:39:00,1833E-3,5C000000,-0724,0830,12262,026.6,045.4,0.482,736.2,01.18,0.508
2014-07-25 00:40:00,1882E-3,5C000000,-0724,0830,12143,026.5,045.5,0.482,736.2,01.18,0.508
2014-07-25 00:41:00,1653E-3,5C000000,-0724,0831,12237,026.5,045.4,0.482,736.2,01.18,0.508
2014-07-25 00:42:00,1756E-3,5C000000,-0724,0830,12258,026.6,045.4,0.482,736.2,01.18,0.508
2014-07-25 00:43:00,1849E-3,5C000000,-0724,0831,12204,026.5,045.4,0.481,736.2,01.18,0.508
2014-07-25 00:44:00,1838E-3,5C000000,-0724,0830,12017,026.5,045.4,0.482,736.2,01.18,0.508
2014-07-25 00:45:00,1738E-3,5C000000,-0724,0831,12121,026.5,045.4,0.482,736.2,01.18,0.508
2014-07-25 00:46:00,1888E-3,5C000000,-0724,0830,12304,026.5,045.5,0.482,736.2,01.18,0.508
2014-07-25 00:47:00,1964E-3,5C000000,-0724,0831,12348,026.5,045.4,0.482,736.2,01.18,0.508
2014-07-25 00:48:00,1783E-3,5C000000,-0724,0831,12208,026.5,045.5,0.482,736.2,01.18,0.508
2014-07-25 00:49:00,1753E-3,5C000000,-0724,0830,12146,026.5,045.5,0.482,736.2,01.18,0.508
2014-07-25 00:50:00,1777E-3,5C000000,-0724,0831,12259,026.5,045.4,0.482,736.2,01.18,0.508
2014-07-25 00:51:00,1922E-3,5C000000,-0724,0831,12195,026.5,045.4,0.482,736.3,01.18,0.508
2014-07-25 00:52:00,1888E-3,5C000000,-0724,0832,11993,026.5,045.5,0.482,736.3,01.18,0.508
2014-07-25 00:53:00,1820E-3,5C000000,-0724,0831,12220,026.5,045.5,0.482,736.2,01.18,0.508
2014-07-25 00:54:00,1848E-3,5C000000,-0724,0831,12056,026.5,045.5,0.482,736.3,01.18,0.508
2014-07-25 00:55:00,1773E-3,5C000000,-0724,0831,12205,026.5,045.4,0.482,736.3,01.18,0.508
2014-07-25 00:56:00,1822E-3,5C000000,-0724,0831,12258,026.5,045.4,0.482,736.2,01.18,0.508
2014-07-25 00:57:00,1745E-3,5C000000,-0724,0831,12154,026.5,045.4,0.482,736.3,01.18,0.508
2014-07-25 00:58:00,1723E-3,5C000000,-0724,0831,12087,026.5,045.4,0.482,736.2,01.18,0.508
2014-07-25 00:59:00,1757E-3,5C000000,-0724,0829,12116,026.4,045.5,0.482,736.2,01.18,0.508
2014-07-25 01:00:00,1909E-3,5C000000,-0724,0832,12212,026.5,045.5,0.482,736.2,01.18,0.508
2014-07-25 01:01:00,1925E-3,5C000000,-0724,0832,12061,026.5,045.4,0.482,736.2,01.18,0.508
2014-07-25 01:02:00,1713E-3,5C000000,-0724,0830,12247,026.5,045.4,0.482,736.2,01.18,0.508
2014-07-25 01:03:00,1765E-3,5C000000,-0724,0830,12194,026.5,045.4,0.482,736.2,01.18,0.508
2014-07-25 01:04:00,1806E-3,5C000000,-0724,0831,12074,026.5,045.5,0.482,736.2,01.18,0.508
2014-07-25 01:05:00,1870E-3,5C000000,-0724,0831,12198,026.5,045.4,0.482,736.2,01.18,0.508
2014-07-25 01:06:00,1875E-3,5C000000,-0724,0831,12107,026.5,045.5,0.482,736.2,01.18,0.508
2014-07-25 01:07:00,1778E-3,5C000000,-0724,0831,12145,026.5,045.5,0.482,736.2,01.18,0.508
2014-07-25 01:08:00,1702E-3,5C000000,-0724,0831,12374,026.5,045.5,0.482,736.2,01.18,0.508
2014-07-25 01:09:00,1890E-3,5C000000,-0724,0830,12163,026.5,045.4,0.482,736.2,01.18,0.508
2014-07-25 01:10:00,1758E-3,5C000000,-0724,0831,11973,026.5,045.4,0.482,736.2,01.18,0.508
2014-07-25 01:11:00,1808E-3,5C000000,-0724,0831,12206,026.5,045.4,0.482,736.2,01.18,0.508
2014-07-25 01:12:00,1771E-3,5C000000,-0724,0831,12275,026.5,045.4,0.482,736.2,01.18,0.508
2014-07-25 01:13:00,1872E-3,5C000000,-0724,0831,12267,026.5,045.5,0.482,736.2,01.18,0.508
2014-07-25 01:14:00,1769E-3,5C000000,-0724,0831,12146,026.5,045.4,0.482,736.2,01.18,0.508
2014-07-25 01:15:00,1743E-3,5C000000,-0724,0831,12118,026.5,045.4,0.482,736.2,01.18,0.508
2014-07-25 01:16:00,1951E-3,5C000000,-0724,0830,12211,026.5,045.4,0.482,736.2,01.18,0.508
2014-07-25 01:17:00,1816E-3,5C000000,-0724,0830,12279,026.5,045.4,0.481,736.2,01.18,0.508
2014-07-25 01:18:00,1758E-3,5C000000,-0724,0830,12281,026.5,045.4,0.482,736.3,01.18,0.508
2014-07-25 01:19:00,1817E-3,5C000000,-0724,0830,12089,026.5,045.4,0.482,736.3,01.18,0.508
2014-07-25 01:20:00,1870E-3,5C000000,-0724,0831,12142,026.5,045.5,0.481,736.3,01.18,0.508
2014-07-25 01:21:00,1826E-3,5C000000,-0724,0830,12158,026.5,045.5,0.482,736.2,01.18,0.508
2014-07-25 01:22:00,1633E-3,5C000000,-0724,0831,12329,026.5,045.5,0.482,736.3,01.18,0.508
2014-07-25 01:23:00,1840E-3,5C000000,-0724,0831,12217,026.5,045.4,0.482,736.3,01.18,0.508
2014-07-25 01:24:00,1811E-3,5C000000,-0724,0830,12230,026.5,045.5,0.482,736.3,01.18,0.508
2014-07-25 01:25:00,1951E-3,5C000000,-0724,0830,12046,026.5,045.4,0.482,736.2,01.18,0.508
2014-07-25 01:26:00,1752E-3,5C000000,-0724,0830,12122,026.5,045.4,0.482,736.2,01.18,0.508
2014-07-25 01:27:00,1743E-3,5C000000,-0724,0830,12103,026.5,045.5,0.482,736.3,01.18,0.508
2014-07-25 01:28:00,1716E-3,5C000000,-0724,0830,12271,026.5,045.4,0.481,736.3,01.18,0.508
2014-07-25 01:29:00,1917E-3,5C000000,-0724,0832,12229,026.5,045.4,0.482,736.3,01.18,0.508
2014-07-25 01:30:00,1971E-3,5C000000,-0724,0830,12064,026.5,045.4,0.482,736.3,01.18,0.508
2014-07-25 01:31:00,1885E-3,5C000000,-0724,0830,12116,026.5,045.4,0.482,736.3,01.18,0.508
2014-07-25 01:32:00,1765E-3,5C000000,-0724,0831,12262,026.5,045.4,0.482,736.3,01.18,0.508
2014-07-25 01:33:00,1825E-3,5C000000,-0724,0831,12144,026.5,045.4,0.482,736.3,01.18,0.508
2014-07-25 01:34:00,1893E-3,5C000000,-0724,0831,12256,026.5,045.4,0.482,736.4,01.18,0.508
2014-07-25 01:35:00,1798E-3,5C000000,-0724,0831,12164,026.5,045.4,0.482,736.4,01.18,0.508
2014-07-25 01:36:00,1748E-3,5C000000,-0724,0830,12162,026.5,045.4,0.482,736.4,01.18,0.508
2014-07-25 01:37:00,1973E-3,5C000000,-0724,0832,12327,026.5,045.4,0.482,736.4,01.18,0.508
2014-07-25 01:38:00,1677E-3,5C000000,-0724,0831,11987,026.5,045.4,0.481,736.4,01.18,0.508
2014-07-25 01:39:00,1801E-3,5C000000,-0724,0831,12198,026.5,045.4,0.482,736.4,01.18,0.508
2014-07-25 01:40:00,1929E-3,5C000000,-0724,0831,12093,026.5,045.4,0.482,736.4,01.18,0.508
2014-07-25 01:41:00,1704E-3,5C000000,-0724,0830,12166,026.5,045.5,0.482,736.4,01.18,0.508
2014-07-25 01:42:00,1724E-3,5C000000,-0724,0831,11937,026.5,045.5,0.482,736.4,01.18,0.508
2014-07-25 01:43:00,1806E-3,5C000000,-0724,0831,12316,026.5,045.5,0.481,736.4,01.18,0.508
2014-07-25 01:44:00,1768E-3,5C000000,-0724,0831,12178,026.5,045.5,0.482,736.4,01.18,0.508
2014-07-25 01:45:00,1915E-3,5C000000,-0724,0832,12385,026.5,045.5,0.482,736.4,01.18,0.508
2014-07-25 01:46:00,1783E-3,5C000000,-0724,0830,12094,026.5,045.5,0.482,736.4,01.18,0.508
2014-07-25 01:47:00,1783E-3,5C000000,-0724,0830,12214,026.5,045.5,0.482,736.4,01.18,0.508
2014-07-25 01:48:00,1831E-3,5C000000,-0724,0831,12109,026.5,045.5,0.482,736.4,01.18,0.508
2014-07-25 01:49:00,1808E-3,5C000000,-0724,0832,12165,026.5,045.5,0.482,736.4,01.18,0.508
2014-07-25 01:50:00,2037E-3,5C000000,-0724,0832,12299,026.5,045.4,0.482,736.4,01.18,0.508
2014-07-25 01:51:00,1839E-3,5C000000,-0724,0831,12179,026.5,045.4,0.482,736.4,01.18,0.508
2014-07-25 01:52:00,1751E-3,5C000000,-0724,0831,12217,026.5,045.4,0.482,736.4,01.18,0.508
2014-07-25 01:53:00,1896E-3,5C000000,-0724,0831,12337,026.5,045.4,0.481,736.4,01.18,0.508
2014-07-25 01:54:00,1913E-3,5C000000,-0724,0830,12091,026.5,045.5,0.482,736.4,01.18,0.508
2014-07-25 01:55:00,1880E-3,5C000000,-0724,0830,12188,026.5,045.5,0.481,736.4,01.18,0.508
2014-07-25 01:56:00,1832E-3,5C000000,-0724,0831,12206,026.5,045.4,0.482,736.4,01.18,0.508
2014-07-25 01:57:00,1724E-3,5C000000,-0724,0831,12117,026.5,045.4,0.482,736.5,01.18,0.508
2014-07-25 01:58:00,1710E-3,5C000000,-0724,0831,12230,026.5,045.5,0.482,736.5,01.18,0.508
2014-07-25 01:59:00,1837E-3,5C000000,-0724,0830,12126,026.5,045.5,0.482,736.5,01.18,0.508
2014-07-25 02:00:00,1820E-3,5C000000,-0724,0832,12406,026.5,045.4,0.481,736.5,01.18,0.508
2014-07-25 02:01:00,1823E-3,5C000000,-0724,0831,12261,026.5,045.4,0.482,736.5,01.18,0.508
2014-07-25 02:02:00,1953E-3,5C000000,-0724,0832,12172,026.5,045.4,0.482,736.5,01.18,0.508
2014-07-25 02:03:00,1950E-3,5C000000,-0724,0832,12282,026.5,045.4,0.482,736.5,01.18,0.508
2014-07-25 02:04:00,1886E-3,5C000000,-0724,0830,12262,026.5,045.5,0.482,736.5,01.18,0.508
2014-07-25 02:05:00,1655E-3,5C000000,-0724,0830,12088,026.5,045.4,0.482,736.5,01.18,0.508
2014-07-25 02:06:00,1650E-3,5C000000,-0724,0832,12116,026.5,045.4,0.482,736.5,01.18,0.508
2014-07-25 02:07:00,1845E-3,5C000000,-0724,0831,12236,026.5,045.4,0.481,736.5,01.18,0.508
2014-07-25 02:08:00,1819E-3,5C000000,-0724,0831,12204,026.5,045.4,0.482,736.5,01.18,0.508
2014-07-25 02:09:00,1882E-3,5C000000,-0724,0832,12255,026.5,045.4,0.482,736.5,01.18,0.508
2014-07-25 02:10:00,1884E-3,5C000000,-0724,0832,12096,026.5,045.5,0.482,736.5,01.18,0.508
2014-07-25 02:11:00,1893E-3,5C000000,-0724,0830,12125,026.5,045.5,0.482,736.5,01.18,0.508
2014-07-25 02:12:00,1890E-3,5C000000,-0724,0831,12209,026.5,045.5,0.482,736.5,01.18,0.508
2014-07-25 02:13:00,1828E-3,5C000000,-0724,0831,12151,026.5,045.5,0.482,736.5,01.18,0.508
2014-07-25 02:14:00,1722E-3,5C000000,-0724,0832,12338,026.5,045.4,0.482,736.5,01.18,0.508
2014-07-25 02:15:00,1922E-3,5C000000,-0724,0831,12118,026.5,045.4,0.482,736.5,01.18,0.508
2014-07-25 02:16:00,1840E-3,5C000000,-0724,0831,12368,026.5,045.5,0.482,736.5,01.18,0.508
2014-07-25 02:17:00,1869E-3,5C000000,-0724,0831,12162,026.5,045.5,0.482,736.5,01.18,0.508
2014-07-25 02:18:00,1794E-3,5C000000,-0724,0832,12062,026.5,045.5,0.482,736.5,01.18,0.508
2014-07-25 02:19:00,1914E-3,5C000000,-0724,0832,12111,026.5,045.5,0.482,736.5,01.18,0.508
2014-07-25 02:20:00,1895E-3,5C000000,-0724,0831,12237,026.5,045.4,0.482,736.6,01.18,0.508
2014-07-25 02:21:00,1852E-3,5C000000,-0724,0833,12120,026.5,045.4,0.482,736.6,01.18,0.508
2014-07-25 02:22:00,1752E-3,5C000000,-0724,0831,12203,026.5,045.4,0.482,736.6,01.18,0.508
2014-07-25 02:23:00,1908E-3,5C000000,-0724,0832,12171,026.5,045.4,0.481,736.6,01.18,0.508
2014-07-25 02:24:00,1709E-3,5C000000,-0724,0832,11967,026.5,045.4,0.482,736.6,01.18,0.508
2014-07-25 02:25:00,1774E-3,5C000000,-0724,0831,12273,026.5,045.5,0.482,736.7,01.18,0.508
2014-07-25 02:26:00,1896E-3,5C000000,-0724,0831,12083,026.5,045.4,0.482,736.7,01.18,0.508
2014-07-25 02:27:00,1802E-3,5C000000,-0724,0831,12313,026.5,045.4,0.482,736.7,01.18,0.508
2014-07-25 02:28:00,1670E-3,5C000000,-0724,0831,12155,026.5,045.5,0.482,736.7,01.18,0.508
2014-07-25 02:29:00,1760E-3,5C000000,-0724,0831,12323,026.5,045.4,0.482,736.7,01.18,0.508
2014-07-25 02:30:00,1764E-3,5C000000,-0724,0831,12115,026.5,045.5,0.481,736.7,01.18,0.508
2014-07-25 02:31:00,1766E-3,5C000000,-0724,0831,12374,026.5,045.4,0.482,736.7,01.18,0.508
2014-07-25 02:32:00,1896E-3,5C000000,-0724,0831,12086,026.5,045.5,0.482,736.7,01.18,0.508
2014-07-25 02:33:00,1843E-3,5C000000,-0724,0831,12190,026.5,045.5,0.482,736.7,01.18,0.508
2014-07-25 02:34:00,1884E-3,5C000000,-0724,0830,12244,026.5,045.5,0.482,736.7,01.18,0.508
2014-07-25 02:35:00,1812E-3,5C000000,-0724,0831,12079,026.5,045.4,0.482,736.7,01.18,0.508
2014-07-25 02:36:00,1904E-3,5C000000,-0724,0831,12294,026.5,045.4,0.482,736.7,01.18,0.508
2014-07-25 02:37:00,1770E-3,5C000000,-0724,0831,12077,026.5,045.4,0.482,736.6,01.18,0.508
2014-07-25 02:38:00,1922E-3,5C000000,-0724,0831,12207,026.5,045.4,0.482,736.6,01.18,0.508
2014-07-25 02:39:00,1912E-3,5C000000,-0724,0832,11927,026.5,045.5,0.481,736.6,01.18,0.508
2014-07-25 02:40:00,1881E-3,5C000000,-0724,0832,12465,026.5,045.5,0.482,736.6,01.18,0.508
2014-07-25 02:41:00,1941E-3,5C000000,-0724,0831,12200,026.5,045.5,0.482,736.7,01.18,0.508
2014-07-25 02:42:00,1828E-3,5C000000,-0724,0831,12317,026.5,045.5,0.482,736.6,01.18,0.508
2014-07-25 02:43:00,1868E-3,5C000000,-0724,0832,12099,026.5,045.5,0.482,736.6,01.18,0.508
2014-07-25 02:44:00,1789E-3,5C000000,-0724,0830,12230,026.5,045.4,0.482,736.6,01.18,0.508
2014-07-25 02:45:00,1879E-3,5C000000,-0724,0832,12251,026.5,045.5,0.482,736.6,01.18,0.508
2014-07-25 02:46:00,1762E-3,5C000000,-0724,0832,12071,026.5,045.4,0.481,736.6,01.18,0.508
2014-07-25 02:47:00,1782E-3,5C000000,-0724,0830,12202,026.5,045.4,0.482,736.6,01.18,0.508
2014-07-25 02:48:00,1751E-3,5C000000,-0724,0831,12025,026.5,045.4,0.482,736.6,01.18,0.508
2014-07-25 02:49:00,1876E-3,5C000000,-0724,0831,12174,026.5,045.4,0.482,736.6,01.18,0.508
2014-07-25 02:50:00,1954E-3,5C000000,-0724,0831,12304,026.5,045.5,0.482,736.6,01.18,0.508
2014-07-25 02:51:00,1875E-3,5C000000,-0724,0832,12119,026.5,045.5,0.482,736.6,01.18,0.508
2014-07-25 02:52:00,1802E-3,5C000000,-0724,0831,11880,026.5,045.4,0.482,736.6,01.18,0.508
2014-07-25 02:53:00,1789E-3,5C000000,-0724,0831,12195,026.5,045.5,0.482,736.6,01.18,0.508
2014-07-25 02:54:00,1792E-3,5C000000,-0724,0833,12312,026.5,045.4,0.482,736.6,01.18,0.508
2014-07-25 02:55:00,1732E-3,5C000000,-0724,0832,12122,026.6,045.4,0.482,736.6,01.18,0.508
2014-07-25 02:56:00,1798E-3,5C000000,-0724,0832,12278,026.6,045.4,0.482,736.6,01.18,0.508
2014-07-25 02:57:00,1778E-3,5C000000,-0724,0832,12129,026.6,045.4,0.482,736.6,01.18,0.508
2014-07-25 02:58:00,1863E-3,5C000000,-0724,0832,12268,026.6,045.4,0.482,736.6,01.18,0.508
2014-07-25 02:59:00,1918E-3,5C000000,-0724,0832,12263,026.6,045.4,0.482,736.6,01.18,0.508
2014-07-25 03:00:00,1845E-3,5C000000,-0724,0832,12221,026.6,045.4,0.482,736.6,01.18,0.508
2014-07-25 03:01:00,1788E-3,5C000000,-0724,0831,12209,026.6,045.5,0.482,736.6,01.18,0.508
2014-07-25 03:02:00,1788E-3,5C000000,-0724,0831,12120,026.6,045.4,0.482,736.6,01.18,0.508
2014-07-25 03:03:00,1731E-3,5C000000,-0724,0832,12054,026.6,045.5,0.482,736.6,01.18,0.508
2014-07-25 03:04:00,1836E-3,5C000000,-0724,0832,12216,026.6,045.4,0.481,736.6,01.18,0.508
2014-07-25 03:05:00,1792E-3,5C000000,-0724,0831,12151,026.6,045.5,0.482,736.6,01.18,0.508
2014-07-25 03:06:00,1669E-3,5C000000,-0724,0831,12066,026.6,045.5,0.482,736.7,01.18,0.508
2014-07-25 03:07:00,1800E-3,5C000000,-0724,0832,12295,026.6,045.5,0.482,736.7,01.18,0.508
2014-07-25 03:08:00,1808E-3,5C000000,-0724,0832,12119,026.7,045.5,0.482,736.7,01.18,0.508
2014-07-25 03:09:00,1878E-3,5C000000,-0724,0831,12191,026.7,045.4,0.482,736.7,01.18,0.508
2014-07-25 03:10:00,1825E-3,5C000000,-0724,0831,12207,026.7,045.4,0.482,736.6,01.18,0.508
2014-07-25 03:11:00,1792E-3,5C000000,-0724,0831,12331,026.7,045.4,0.481,736.7,01.18,0.508
2014-07-25 03:12:00,1791E-3,5C000000,-0724,0830,12234,026.7,045.5,0.482,736.7,01.18,0.508
2014-07-25 03:13:00,1777E-3,5C000000,-0724,0831,12184,026.7,045.4,0.481,736.7,01.18,0.508
2014-07-25 03:14:00,1780E-3,5C000000,-0724,0829,12178,026.7,045.4,0.482,736.7,01.18,0.508
2014-07-25 03:15:00,1789E-3,5C000000,-0724,0830,12230,026.7,045.4,0.481,736.7,01.18,0.508
2014-07-25 03:16:00,1891E-3,5C000000,-0724,0831,12160,026.7,045.5,0.482,736.7,01.18,0.508
2014-07-25 03:17:00,1847E-3,5C000000,-0724,0831,12194,026.8,045.5,0.481,736.6,01.18,0.508
2014-07-25 03:18:00,1683E-3,5C000000,-0724,0830,12183,026.8,045.5,0.482,736.6,01.18,0.508
2014-07-25 03:19:00,1903E-3,5C000000,-0724,0831,12157,026.8,045.5,0.481,736.6,01.18,0.508
2014-07-25 03:20:00,1732E-3,5C000000,-0724,0830,12219,026.8,045.5,0.482,736.6,01.18,0.508
2014-07-25 03:21:00,1734E-3,5C000000,-0724,0831,12213,026.8,045.5,0.482,736.6,01.18,0.508
2014-07-25 03:22:00,1728E-3,5C000000,-0724,0830,12169,026.8,045.5,0.481,736.6,01.18,0.508
2014-07-25 03:23:00,1726E-3,5C000000,-0724,0832,12278,026.8,045.5,0.482,736.6,01.18,0.508
2014-07-25 03:24:00,1854E-3,5C000000,-0724,0831,12269,026.8,045.5,0.481,736.5,01.18,0.508
2014-07-25 03:25:00,1724E-3,5C000000,-0724,0830,12076,026.9,045.5,0.482,736.5,01.18,0.508
2014-07-25 03:26:00,1793E-3,5C000000,-0724,0831,12092,026.9,045.5,0.481,736.5,01.18,0.508
2014-07-25 03:27:00,1788E-3,5C000000,-0724,0831,12223,026.8,045.5,0.482,736.5,01.18,0.508
2014-07-25 03:28:00,1810E-3,5C000000,-0724,0832,12311,026.9,045.5,0.481,736.5,01.18,0.508
2014-07-25 03:29:00,1880E-3,5C000000,-0724,0832,12080,026.9,045.4,0.482,736.5,01.18,0.508
2014-07-25 03:30:00,1739E-3,5C000000,-0724,0831,12140,026.9,045.5,0.481,736.5,01.18,0.508
2014-07-25 03:31:00,1801E-3,5C000000,-0724,0831,12207,026.9,045.4,0.482,736.5,01.18,0.508
2014-07-25 03:32:00,1792E-3,5C000000,-0724,0830,12363,026.9,045.5,0.481,736.5,01.18,0.508
2014-07-25 03:33:00,1790E-3,5C000000,-0724,0831,12230,026.9,045.5,0.482,736.5,01.18,0.508
2014-07-25 03:34:00,1796E-3,5C000000,-0724,0831,12065,026.9,045.5,0.481,736.5,01.18,0.508
2014-07-25 03:35:00,1870E-3,5C000000,-0724,0832,12307,027.0,045.4,0.481,736.5,01.18,0.508
2014-07-25 03:36:00,1854E-3,5C000000,-0724,0830,12092,026.9,045.4,0.481,736.5,01.18,0.508
2014-07-25 03:37:00,1655E-3,5C000000,-0724,0831,12357,027.0,045.5,0.481,736.5,01.18,0.508
2014-07-25 03:38:00,1796E-3,5C000000,-0724,0832,12092,027.0,045.5,0.481,736.5,01.18,0.508
2014-07-25 03:39:00,1925E-3,5C000000,-0724,0831,12143,027.0,045.4,0.481,736.5,01.18,0.508
2014-07-25 03:40:00,1794E-3,5C000000,-0724,0833,12482,027.0,045.4,0.481,736.5,01.18,0.508
2014-07-25 03:41:00,1759E-3,5C000000,-0724,0831,12263,027.0,045.5,0.481,736.4,01.18,0.508
2014-07-25 03:42:00,1665E-3,5C000000,-0724,0831,12407,027.0,045.5,0.481,736.4,01.18,0.508
2014-07-25 03:43:00,1894E-3,5C000000,-0724,0831,12136,027.0,045.5,0.482,736.5,01.18,0.508
2014-07-25 03:44:00,1763E-3,5C000000,-0724,0831,12181,027.0,045.5,0.481,736.5,01.18,0.508
2014-07-25 03:45:00,1829E-3,5C000000,-0724,0831,12064,027.0,045.5,0.481,736.5,01.18,0.508
2014-07-25 03:46:00,1919E-3,5C000000,-0724,0832,12151,027.0,045.4,0.481,736.5,01.18,0.508
2014-07-25 03:47:00,1826E-3,5C000000,-0724,0831,12301,027.0,045.5,0.481,736.5,01.18,0.508
2014-07-25 03:48:00,1894E-3,5C000000,-0724,0832,12092,027.1,045.5,0.481,736.4,01.18,0.508
2014-07-25 03:49:00,1528E-3,5C000000,-0724,0831,12271,027.1,045.5,0.481,736.4,01.18,0.508
2014-07-25 03:50:00,1910E-3,5C000000,-0724,0832,12148,027.1,045.5,0.481,736.5,01.18,0.508
2014-07-25 03:51:00,1923E-3,5C000000,-0724,0831,12247,027.1,045.5,0.481,736.5,01.18,0.508
2014-07-25 03:52:00,1829E-3,5C000000,-0724,0831,12184,027.1,045.4,0.481,736.5,01.18,0.508
2014-07-25 03:53:00,1821E-3,5C000000,-0724,0831,12179,027.1,045.5,0.481,736.5,01.18,0.508
2014-07-25 03:54:00,1803E-3,5C000000,-0724,0831,12084,027.1,045.5,0.481,736.5,01.18,0.508
2014-07-25 03:55:00,1807E-3,5C000000,-0724,0832,12153,027.1,045.5,0.481,736.5,01.18,0.508
2014-07-25 03:56:00,1820E-3,5C000000,-0724,0832,12233,027.1,045.5,0.481,736.5,01.18,0.508
2014-07-25 03:57:00,1925E-3,5C000000,-0724,0830,12025,027.1,045.5,0.481,736.5,01.18,0.508
2014-07-25 03:58:00,1742E-3,5C000000,-0724,0832,12139,027.1,045.5,0.481,736.5,01.18,0.508
2014-07-25 03:59:00,1847E-3,5C000000,-0724,0833,11994,027.1,045.5,0.481,736.5,01.18,0.508
2014-07-25 04:00:00,1682E-3,5C000000,-0724,0831,12112,027.1,045.5,0.481,736.5,01.18,0.508
2014-07-25 04:01:00,1838E-3,5C000000,-0724,0830,12184,027.1,045.5,0.481,736.5,01.18,0.508
2014-07-25 04:02:00,1842E-3,5C000000,-0724,0832,12306,027.1,045.5,0.481,736.5,01.18,0.508
2014-07-25 04:03:00,1728E-3,5C000000,-0724,0830,12035,027.1,045.5,0.481,736.5,01.18,0.508
2014-07-25 04:04:00,1825E-3,5C000000,-0724,0832,12154,027.2,045.5,0.481,736.5,01.18,0.508
2014-07-25 04:05:00,1860E-3,5C000000,-0724,0831,12282,027.2,045.5,0.481,736.5,01.18,0.508
2014-07-25 04:06:00,1733E-3,5C000000,-0724,0831,12360,027.2,045.5,0.481,736.5,01.18,0.508
2014-07-25 04:07:00,1812E-3,5C000000,-0724,0831,12039,027.2,045.5,0.481,736.5,01.18,0.508
2014-07-25 04:08:00,1977E-3,5C000000,-0724,0831,12190,027.2,045.5,0.481,736.5,01.18,0.508
2014-07-25 04:09:00,1765E-3,5C000000,-0724,0830,12150,027.2,045.5,0.481,736.5,01.18,0.508
2014-07-25 04:10:00,1830E-3,5C000000,-0724,0834,12175,027.2,045.5,0.481,736.5,01.18,0.508
2014-07-25 04:11:00,1738E-3,5C000000,-0724,0831,12243,027.2,045.5,0.481,736.5,01.18,0.508
2014-07-25 04:12:00,2062E-3,5C000000,-0724,0831,12159,027.2,045.4,0.481,736.5,01.18,0.508
2014-07-25 04:13:00,1879E-3,5C000000,-0724,0830,12034,027.2,045.4,0.481,736.5,01.18,0.508
2014-07-25 04:14:00,1865E-3,5C000000,-0724,0831,12345,027.2,045.5,0.481,736.5,01.18,0.508
2014-07-25 04:15:00,1739E-3,5C000000,-0724,0832,12290,027.2,045.5,0.481,736.5,01.18,0.508
2014-07-25 04:16:00,1764E-3,5C000000,-0724,0832,12185,027.2,045.5,0.481,736.5,01.18,0.508
2014-07-25 04:17:00,1881E-3,5C000000,-0724,0832,12216,027.2,045.5,0.481,736.5,01.18,0.508
2014-07-25 04:18:00,1709E-3,5C000000,-0724,0831,12121,027.2,045.5,0.481,736.5,01.18,0.508
2014-07-25 04:19:00,1744E-3,5C000000,-0724,0830,12300,027.2,045.5,0.481,736.5,01.18,0.508
2014-07-25 04:20:00,1924E-3,5C000000,-0724,0832,12267,027.3,045.5,0.480,736.5,01.18,0.508